This demonstration page uses our WeatherBlox Daily Observations layout. Learn more.

Left ArrowRight Arrow

38.89511, -77.03637

Hourly Observations for April 1, 2021

Temp ( °F °C ) Dew Point ( °F °C ) Humidity (%) Winds ( mph kmh ) Pressure ( in mb ) Visibility ( mi km ) Precip ( " mm )
12:13 am 00:13 Cloudy with Light Rain 55 12.8 53 11.7 93 93 NW 23 37 29.87 1012 4 6 0.00 0.00
12:21 am 00:21 Cloudy with Light Rain 55 12.8 53 11.7 93 93 NW 22 35 29.86 1011 7 11 0.00 0.00
12:52 am 00:52 Cloudy 51 10.6 47 8.3 86 86 NW 30 48 29.88 1012 10 16 0.00 0.00
1:52 am 01:52 Cloudy 49 9.4 43 6.1 80 80 NNW 21 33 29.89 1012 10 16 0.00 0.00
2:26 am 02:26 Cloudy with Light Rain 48 8.9 44 6.7 86 86 NNW 14 22 29.91 1013 8 13 0.00 0.00
2:52 am 02:52 Cloudy with Light Rain 47 8.3 44 6.7 90 90 NNW 12 19 29.92 1013 5 8 0.02 0.51
2:59 am 02:59 Cloudy with Light Rain 47 8.3 44 6.7 90 90 NNW 15 24 29.92 1013 5 8 0.00 0.00
3:46 am 03:46 Cloudy with Light Rain 45 7 41 5 87 87 NNW 18 30 29.93 1014 7 11 0.08 2.03
3:52 am 03:52 Cloudy with Light Rain 44 6.7 40 4.4 85 85 NNW 21 33 29.93 1013 8 13 0.09 2.29
4:08 am 04:08 Cloudy with Light Rain 44 6.7 39 3.9 83 83 NNW 21 33 29.95 1014 10 16 0.01 0.25
4:25 am 04:25 Cloudy with Light Rain 44 6.7 39 3.9 83 83 NNW 21 33 29.94 1014 8 13 0.01 0.25
4:52 am 04:52 Cloudy with Light Rain 43 6.1 38 3.3 82 82 NNW 22 35 29.93 1014 10 16 0.03 0.76
4:59 am 04:59 Cloudy with Light Rain 43 6.1 38 3.3 82 82 NNW 20 31 29.94 1014 10 16 0.00 0.00
5:28 am 05:28 Cloudy with Light Rain 42 5.6 38 3.3 85 85 NNW 16 26 29.93 1014 6 10 0.03 0.76
5:49 am 05:49 Cloudy with Light Rain 43 6 37 3 81 81 NNW 16 26 29.95 1014 10 16 0.03 0.76
5:52 am 05:52 Cloudy with Light Rain 42 5.6 37 2.8 82 82 NNW 16 26 29.95 1014 10 16 0.03 0.76
6:52 am 06:52 Cloudy 41 5 37 2.8 86 86 N 14 22 29.95 1014 10 16 0.02 0.51
7:52 am 07:52 Cloudy 42 5.6 37 2.8 82 82 NW 10 17 29.98 1015 10 16 0.00 0.00
8:52 am 08:52 Mostly Cloudy 44 6.7 37 2.8 76 76 NW 7 11 29.98 1015 10 16 0.00 0.00
9:52 am 09:52 Mostly Sunny 48 8.9 37 2.8 66 66 NW 14 22 29.98 1015 10 16 0.00 0.00
10:15 am 10:15 Mostly Cloudy 48 8.9 36 2.2 63 63 NNW 16 26 29.98 1015 10 16 0.00 0.00
10:52 am 10:52 Mostly Cloudy 48 8.9 33 0.6 56 56 NW 20 31 29.98 1015 10 16 0.00 0.00
11:52 am 11:52 Mostly Cloudy 49 9.4 31 -0.6 50 50 NW 16 26 29.99 1016 10 16 0.00 0.00
12:52 pm 12:52 Cloudy with Light Rain 47 8.3 29 -1.7 50 50 NW 18 30 30.00 1016 10 16 0.00 0.00
1:52 pm 13:52 Mostly Cloudy 48 8.9 26 -3.3 42 42 WNW 15 24 30.01 1016 10 16 0.00 0.00
2:52 pm 14:52 Mostly Cloudy 49 9.4 26 -3.3 41 41 WNW 17 28 30.01 1016 10 16 0.00 0.00
3:52 pm 15:52 Mostly Cloudy 49 9.4 26 -3.3 41 41 WNW 20 31 30.01 1016 10 16 0.00 0.00
4:52 pm 16:52 Cloudy 46 7.8 27 -2.8 47 47 NNW 29 46 30.05 1018 10 16 0.00 0.00
5:52 pm 17:52 Cloudy 43 6.1 27 -2.8 53 53 NNW 24 39 30.08 1019 10 16 0.00 0.00
6:52 pm 18:52 Mostly Cloudy 43 6.1 24 -4.4 47 47 NNW 18 30 30.10 1019 10 16 0.00 0.00
7:52 pm 19:52 Partly Cloudy 41 5 21 -6.1 45 45 NW 21 33 30.13 1020 10 16 0.00 0.00
8:52 pm 20:52 Mostly Cloudy 39 3.9 24 -4.4 55 55 NW 23 37 30.16 1021 10 16 0.00 0.00
9:52 pm 21:52 Partly Cloudy 37 2.8 23 -5 57 57 NW 16 26 30.19 1023 10 16 0.00 0.00
10:52 pm 22:52 Mostly Clear 36 2.2 19 -7.2 50 50 NW 24 39 30.20 1023 10 16 0.00 0.00
11:52 pm 23:52 Mostly Clear 35 1.7 19 -7.2 52 52 WNW 14 22 30.21 1023 10 16 0.00 0.00

Powered by AerisWeather